Weather in Malen'koe

Russia / Republic of Crimea     45°04′33″N   34°00′03″E
temp.,
°C
wind,
m/s
gust,
m/s
humid.,
%
clouds,
%
prec.,
mm/h
press.,
hPa
HPBL,
m
3 march, wed
wed300:00+2sw6108466 0.0 1024404
03:00+3wsw6118982 0.0 1023581
06:00+2n588997 0.1 1023446
09:00+2nnw477792 0.1 1025890
12:00+6n566471 0.0 1026959
15:00+7nnw565336 0.0 10271318
18:00+6nnw35600 0.0 1027401
21:00+3w227115 0.0 102933
4 march, thu
thu400:00+2ssw237931 0.0 102834
03:00+1ssw238216 0.0 102836
06:00+1s33830 0.0 102640
09:00+4ssw35710 0.0 1026272
12:00+7sw56580 0.0 1024915
15:00+8wsw68550 0.0 1022902
18:00+5sw69660 0.0 1020600
21:00+3ssw59770 0.0 1020301
5 march, fri
fri500:00+2ssw510760 0.0 1019285
03:00+2ssw511750 0.0 1018270
06:00+2ssw49740 0.0 1017179
09:00+6ssw49580 0.0 1016280
12:00+12sw812490 0.0 1015852
15:00+12sw913500 0.0 1013958
18:00+9sw7146027 0.0 1013529
21:00+7ssw6137430 0.0 1014334
6 march, sat
sat600:00+6ssw6128581 0.0 1013313
03:00+5ssw488948 0.0 1014168
06:00+5s348748 0.0 101466
09:00+5nne359072 0.0 1016194
12:00+6n5684100 0.0 1017461
15:00+1nne6995100 0.8 1018418
18:00+1ne3787100 2.9 1020708
21:00+1n3875100 2.9 1023464
7 march, sun
sun700:00−1n4107478 0.0 1026371
03:00−3nne237943 0.0 102781
06:00−3sse11660 0.0 102821
09:00−1ssw22540 0.0 1029213
12:00+2w45470 0.0 10291518
15:00+2w555218 0.0 10271387
18:000w366222 0.0 1025388
21:00−2ssw237018 0.0 102447